Location: Berg
(48.4333°N, 13.9167°E)
Time: 08:52:39
(UTC+00:00)

ATLAS 2AS CENTAUR R/B - Pass Details

Date: 18 September 2020
Orbit: 939 x 1273 km, 63.7° (Epoch: 19 October)

Event Time Altitude Azimuth Distance (km) Brightness Sun altitude
Rises 21:02:41 0° 226° (SW) 4,203 5.7 -34.2°
Enters shadow 21:04:48 - 228° (SW) 3,484 5.3 -34.4°
Exits shadow 21:11:56 60° 254° (WSW) 1,437 3.2 -35.1°
Maximum altitude 21:13:26 74° 314° (NW) 1,319 3.1 -35.2°
Drops below altitude 10° 21:21:18 10° 40° (NE) 3,213 5.4 -35.9°
Sets 21:24:04 0° 42° (NE) 4,149 6.0 -36.1°
